Location: Ernsee
(50.8780°N, 12.0389°E)
Time: 12:35:25
(UTC+00:00)

Nadezhda 1 Rocket - Pass Details

Date: 20 January 2020
Orbit: 942 x 1005 km, 83.0° (Epoch: 16 February)

Event Time Altitude Azimuth Distance (km) Brightness Sun altitude
Rises 03:59:09 0° 178° (S) 3,603 7.0 -28.6°
Reaches altitude 10° 04:01:38 10° 176° (S) 2,658 6.3 -28.3°
Maximum altitude 04:07:38 68° 95° (E) 1,013 4.2 -27.3°
Drops below altitude 10° 04:13:41 10° 14° (NNE) 2,675 6.4 -26.4°
Sets 04:16:11 0° 12° (NNE) 3,627 7.1 -26.0°
